This demonstration page uses our WeatherBlox Daily Observations layout. Learn more.

Left ArrowRight Arrow

Hourly Observations for February 25, 2022

Temp ( °F °C ) Dew Point ( °F °C ) Humidity (%) Winds ( mph kmh ) Pressure ( in mb ) Visibility ( mi km ) Precip ( " mm )
12:53 am 00:53 Clear 31 -0.6 21 -6.1 67 67 Calm 30.29 1026 10 16 0.00 0.00
1:53 am 01:53 Clear 32 0 20 -6.7 61 61 Calm 30.29 1026 10 16 0.00 0.00
2:53 am 02:53 Clear 29 -1.7 20 -6.7 69 69 Calm 30.28 1026 10 16 0.00 0.00
3:53 am 03:53 Clear 28 -2.2 19 -7.2 69 69 Calm 30.28 1025 10 16 0.00 0.00
4:53 am 04:53 Clear 28 -2.2 20 -6.7 72 72 N 3 6 30.28 1025 10 16 0.00 0.00
5:53 am 05:53 Clear 27 -2.8 19 -7.2 72 72 Calm 30.29 1026 10 16 0.00 0.00
6:53 am 06:53 Sunny 27 -2.8 19 -7.2 72 72 undefined N/A 30.29 1026 10 16 0.00 0.00
7:53 am 07:53 Sunny 36 2.2 23 -5 59 59 Calm 30.30 1026 10 16 0.00 0.00
8:53 am 08:53 Sunny 44 6.7 26 -3.3 49 49 Calm 30.31 1027 10 16 0.00 0.00
9:53 am 09:53 Sunny 53 11.7 19 -7.2 26 26 N 13 20 30.30 1026 10 16 0.00 0.00
10:53 am 10:53 Sunny 55 12.8 18 -7.8 23 23 N 7 11 30.30 1026 10 16 0.00 0.00
11:53 am 11:53 Sunny 59 15 17 -8.3 19 19 NNE 3 6 30.28 1026 10 16 0.00 0.00
12:53 pm 12:53 Sunny 60 15.6 14 -10 16 16 N 7 11 30.25 1025 10 16 0.00 0.00
1:53 pm 13:53 Sunny 62 16.7 13 -10.6 14 14 NE 8 13 30.22 1023 10 16 0.00 0.00
2:53 pm 14:53 Sunny 64 17.8 12 -11.1 13 13 N 5 7 30.20 1023 10 16 0.00 0.00
3:53 pm 15:53 Sunny 64 17.8 11 -11.7 12 12 VRB 5 7 30.19 1023 10 16 0.00 0.00
4:53 pm 16:53 Sunny 64 17.8 9 -12.8 11 11 W 3 6 30.19 1022 10 16 0.00 0.00
5:53 pm 17:53 Sunny 57 13.9 14 -10 18 18 WSW 3 6 30.20 1023 10 16 0.00 0.00
6:53 pm 18:53 Clear 49 9.4 15 -9.4 26 26 W 7 11 30.22 1023 10 16 0.00 0.00
7:53 pm 19:53 Clear 49 9.4 14 -10 25 25 NW 6 9 30.23 1024 10 16 0.00 0.00
8:53 pm 20:53 Clear 44 6.7 18 -7.8 35 35 N 3 6 30.24 1024 10 16 0.00 0.00
9:53 pm 21:53 Clear 40 4.4 18 -7.8 41 41 Calm 30.26 1025 10 16 0.00 0.00
10:53 pm 22:53 Clear 39 3.9 21 -6.1 48 48 Calm 30.25 1025 10 16 0.00 0.00
11:53 pm 23:53 Clear 38 3.3 21 -6.1 51 51 Calm 30.26 1025 10 16 0.00 0.00

Powered by AerisWeather